Satellite-Ground Cal/Val Region Overpasses Predictions

Prediction of Satellite NPP Overpassing Cal/Val Region: PacNW

Region Location: (Latitude: 10.00, Longitude: 139.50) to (Latitude: 22.70, Longitude: 165.60).

Table of predicted overpasses for the next 14.0 days since TLE Epoch: 5/10/2013
Interval Starting Time Starting Location Ending Time Ending Location
1 05/10/2013 14:29:22 ( 12.31, 165.59) 05/10/2013 14:30:01 ( 10.02, 165.06)
2 05/10/2013 16:07:55 ( 22.70, 142.71) 05/10/2013 16:11:31 ( 10.02, 139.68)
3 05/11/2013 03:17:01 ( 10.03, 150.21) 05/11/2013 03:20:36 ( 22.65, 147.20)
4 05/11/2013 15:48:53 ( 22.69, 147.46) 05/11/2013 15:52:29 ( 10.01, 144.44)
5 05/12/2013 02:57:59 ( 10.03, 154.97) 05/12/2013 03:01:34 ( 22.65, 151.96)
6 05/12/2013 15:29:52 ( 22.69, 152.22) 05/12/2013 15:33:28 ( 10.00, 149.20)
7 05/13/2013 02:38:58 ( 10.04, 159.73) 05/13/2013 02:42:33 ( 22.66, 156.72)
8 05/13/2013 15:10:51 ( 22.68, 156.98) 05/13/2013 15:14:26 ( 10.06, 153.97)
9 05/14/2013 02:19:56 ( 10.05, 164.48) 05/14/2013 02:23:31 ( 22.67, 161.48)
10 05/14/2013 14:51:49 ( 22.67, 161.74) 05/14/2013 14:55:24 ( 10.05, 158.73)
11 05/15/2013 03:42:25 ( 10.06, 143.86) 05/15/2013 03:46:00 ( 22.68, 140.86)
12 05/15/2013 14:33:50 ( 19.03, 165.60) 05/15/2013 14:36:23 ( 10.04, 163.48)
13 05/15/2013 16:14:18 ( 22.66, 141.12) 05/15/2013 16:16:11 ( 16.03, 139.50)
14 05/16/2013 03:23:22 ( 10.01, 148.63) 05/16/2013 03:26:58 ( 22.69, 145.61)
15 05/16/2013 15:55:16 ( 22.65, 145.87) 05/16/2013 15:58:51 ( 10.02, 142.87)
16 05/17/2013 03:04:21 ( 10.02, 153.39) 05/17/2013 03:07:57 ( 22.70, 150.37)
17 05/17/2013 15:36:14 ( 22.69, 150.64) 05/17/2013 15:39:50 ( 10.01, 147.62)
18 05/18/2013 02:45:19 ( 10.03, 158.15) 05/18/2013 02:48:54 ( 22.65, 155.14)
19 05/18/2013 15:17:12 ( 22.68, 155.40) 05/18/2013 15:20:48 ( 10.00, 152.38)
20 05/19/2013 02:26:18 ( 10.04, 162.91) 05/19/2013 02:29:53 ( 22.66, 159.90)
21 05/19/2013 14:58:11 ( 22.67, 160.16) 05/19/2013 15:01:46 ( 10.05, 157.15)
22 05/20/2013 02:09:47 ( 18.86, 165.59) 05/20/2013 02:10:52 ( 22.67, 164.65)
23
